Location: Unspecified
(49.9820°N, 20.4363°E)
Time: 14:47:32
(UTC+02:00)

ISS - Pass Details

Date: 19 May 2018
Orbit: 402 x 407 km, 51.6° (Epoch: 22 May)

Event Time Altitude Azimuth Distance (km) Brightness Sun altitude
Exits shadow 02:30:18 - 283° (WNW) 1,947 -0.5 -15.8°
Reaches altitude 10° 02:31:29 10° 284° (WNW) 1,459 -1.2 -15.7°
Maximum altitude 02:34:45 71° 9° (N) 431 -3.6 -15.4°
Drops below altitude 10° 02:38:01 10° 95° (E) 1,457 -0.7 -15.2°
Sets 02:40:06 0° 97° (E) 2,315 0.3 -15.0°
